Total_Precipitation_Accumulation
0.64 0.86 0.91 0.82 0.81 0.87 0.78 0.73 0.83 0.82 0.69 0.84 0.80 0.64 0.54 0.50 0.48 0.51 0.57 0.57 0.53 0.40 0.30 0.24 0.22 0.28 0.35 0.33 0.32 0.38 0.42 0.51 0.52 0.46 0.49 0.64 0.78 0.91 1.06 1.25 1.25 1.47 1.60 1.51
0.75 0.65 0.49 0.58 0.64 0.73 0.75 0.81 0.85 0.76 0.65 0.74 0.81 0.67 0.55 0.46 0.40 0.41 0.45 0.49 0.46 0.36 0.29 0.26 0.21 0.23 0.28 0.31 0.26 0.27 0.30 0.41 0.53 0.55 0.59 0.74 0.94 1.06 1.18 1.35 1.38 1.45 1.47 1.45
0.56 0.45 0.40 0.50 0.59 0.73 0.71 0.78 0.77 0.77 0.78 0.73 0.81 0.88 0.67 0.50 0.44 0.42 0.42 0.43 0.41 0.32 0.28 0.27 0.25 0.21 0.22 0.26 0.22 0.26 0.34 0.48 0.65 0.82 1.05 1.33 1.64 1.80 1.69 1.58 1.67 1.75 1.79 1.71
0.65 0.43 0.41 0.49 0.55 0.64 0.82 0.55 0.55 0.66 0.92 0.94 0.78 1.02 0.71 0.50 0.49 0.49 0.44 0.39 0.35 0.31 0.28 0.25 0.25 0.24 0.25 0.31 0.35 0.46 0.60 0.75 0.91 1.11 1.32 1.61 1.89 2.11 2.12 2.16 2.22 2.17 2.09 1.96
0.73 0.46 0.42 0.48 0.43 0.49 0.64 0.55 0.56 0.67 0.88 0.85 0.73 0.76 0.63 0.50 0.58 0.60 0.56 0.47 0.43 0.42 0.39 0.38 0.39 0.37 0.39 0.50 0.62 0.75 1.04 1.21 1.30 1.33 1.41 1.65 1.75 1.85 1.97 2.13 2.19 2.19 2.12 2.00
0.63 0.44 0.39 0.40 0.37 0.40 0.53 0.65 0.73 0.83 0.94 0.89 0.58 0.57 0.63 0.49 0.55 0.66 0.63 0.55 0.49 0.46 0.43 0.45 0.52 0.53 0.60 0.83 1.06 1.19 1.36 1.58 1.50 1.37 1.35 1.47 1.62 1.72 1.83 2.00 2.07 2.01 1.89 1.87
0.59 0.51 0.38 0.37 0.46 0.45 0.53 0.83 1.06 1.10 1.03 0.73 0.38 0.44 0.52 0.38 0.37 0.47 0.53 0.53 0.48 0.42 0.41 0.46 0.55 0.68 0.90 1.14 1.34 1.47 1.50 1.54 1.44 1.26 1.28 1.32 1.46 1.61 1.67 1.72 1.75 1.75 1.70 1.65
0.49 0.56 0.38 0.32 0.37 0.41 0.46 0.60 0.91 1.01 0.86 0.59 0.41 0.55 0.55 0.39 0.29 0.27 0.29 0.35 0.44 0.49 0.55 0.57 0.62 0.80 1.12 1.39 1.62 1.88 1.87 1.67 1.50 1.37 1.36 1.38 1.46 1.51 1.49 1.41 1.46 1.50 1.48 1.44
0.39 0.40 0.31 0.31 0.32 0.34 0.43 0.44 0.47 0.65 0.57 0.55 0.48 0.51 0.44 0.29 0.24 0.23 0.26 0.32 0.44 0.54 0.64 0.74 0.89 0.98 1.21 1.45 1.78 2.08 2.16 1.96 1.79 1.68 1.57 1.54 1.42 1.32 1.25 1.16 1.17 1.21 1.26 1.20
0.35 0.40 0.36 0.34 0.40 0.36 0.34 0.39 0.45 0.67 0.74 0.72 0.54 0.54 0.45 0.30 0.23 0.24 0.34 0.40 0.49 0.58 0.63 0.80 1.10 1.38 1.65 1.59 1.72 1.95 1.91 1.87 1.85 1.84 1.81 1.67 1.44 1.27 1.21 1.14 1.15 1.12 1.17 1.11
0.30 0.42 0.43 0.41 0.38 0.34 0.33 0.38 0.45 0.57 0.57 0.74 0.81 0.68 0.42 0.35 0.35 0.40 0.48 0.51 0.55 0.63 0.68 0.87 1.07 1.27 1.51 1.63 1.65 1.68 1.69 1.76 1.78 1.66 1.58 1.46 1.18 0.99 0.96 0.97 0.95 0.91 0.95 0.90
0.28 0.40 0.45 0.38 0.31 0.31 0.38 0.41 0.46 0.73 0.71 0.64 0.89 0.90 0.51 0.48 0.50 0.59 0.66 0.71 0.75 0.76 0.82 0.97 1.08 1.25 1.35 1.37 1.48 1.59 1.51 1.50 1.49 1.37 1.23 1.07 0.97 0.84 0.81 0.81 0.76 0.69 0.70 0.67
0.34 0.51 0.57 0.54 0.48 0.42 0.55 0.58 0.48 0.49 0.65 0.78 0.98 0.94 0.68 0.68 0.71 0.81 0.91 0.94 0.89 0.83 0.83 0.93 1.02 1.11 1.17 1.23 1.33 1.48 1.39 1.40 1.40 1.25 1.14 1.01 0.90 0.89 0.85 0.75 0.69 0.58 0.54 0.59
0.36 0.46 0.44 0.46 0.43 0.43 0.61 0.66 0.56 0.58 0.73 0.76 0.78 0.84 0.83 0.93 0.94 0.96 0.97 0.95 0.85 0.75 0.68 0.68 0.71 0.79 0.87 0.93 1.01 1.16 1.18 1.31 1.45 1.38 1.23 1.12 1.00 0.89 0.85 0.72 0.64 0.54 0.57 0.63
0.35 0.41 0.31 0.23 0.22 0.26 0.40 0.49 0.47 0.53 0.57 0.59 0.61 0.67 0.81 0.91 0.95 0.92 0.83 0.71 0.64 0.56 0.49 0.45 0.49 0.58 0.66 0.75 0.79 0.86 0.99 1.21 1.27 1.10 0.91 0.82 0.79 0.76 0.67 0.63 0.59 0.52 0.49 0.46
0.35 0.37 0.30 0.24 0.20 0.22 0.22 0.20 0.24 0.29 0.32 0.38 0.49 0.62 0.68 0.70 0.71 0.65 0.54 0.43 0.40 0.39 0.37 0.37 0.41 0.46 0.47 0.50 0.57 0.69 0.77 0.85 0.84 0.75 0.67 0.65 0.59 0.53 0.52 0.52 0.49 0.44 0.39 0.34
0.34 0.39 0.43 0.36 0.21 0.24 0.23 0.16 0.19 0.27 0.29 0.38 0.56 0.67 0.59 0.53 0.50 0.49 0.38 0.28 0.29 0.28 0.30 0.32 0.32 0.33 0.31 0.34 0.38 0.40 0.48 0.57 0.55 0.48 0.43 0.44 0.46 0.44 0.41 0.42 0.42 0.42 0.40 0.37
0.28 0.39 0.49 0.46 0.40 0.38 0.19 0.11 0.14 0.21 0.27 0.34 0.45 0.47 0.41 0.38 0.33 0.30 0.24 0.22 0.23 0.24 0.25 0.23 0.22 0.25 0.26 0.30 0.32 0.34 0.38 0.43 0.46 0.40 0.36 0.35 0.38 0.39 0.40 0.41 0.42 0.41 0.40 0.38
0.21 0.38 0.54 0.53 0.55 0.30 0.12 0.10 0.13 0.16 0.19 0.20 0.24 0.25 0.23 0.24 0.25 0.25 0.22 0.20 0.20 0.19 0.19 0.20 0.22 0.26 0.30 0.33 0.34 0.30 0.29 0.31 0.35 0.34 0.35 0.36 0.38 0.39 0.40 0.40 0.39 0.37 0.37 0.36
0.21 0.31 0.48 0.52 0.55 0.37 0.17 0.11 0.11 0.14 0.19 0.16 0.17 0.16 0.17 0.18 0.29 0.32 0.23 0.18 0.16 0.18 0.18 0.20 0.23 0.27 0.30 0.33 0.33 0.31 0.28 0.28 0.28 0.32 0.34 0.40 0.41 0.40 0.39 0.44 0.47 0.40 0.36 0.37
0.27 0.34 0.39 0.47 0.52 0.29 0.13 0.12 0.13 0.23 0.25 0.16 0.15 0.14 0.15 0.20 0.26 0.28 0.24 0.19 0.17 0.21 0.23 0.22 0.25 0.26 0.28 0.30 0.33 0.35 0.34 0.34 0.35 0.35 0.37 0.37 0.37 0.38 0.42 0.45 0.50 0.49 0.43 0.40
0.32 0.39 0.41 0.45 0.51 0.32 0.13 0.14 0.20 0.22 0.14 0.12 0.12 0.13 0.14 0.18 0.21 0.21 0.22 0.20 0.19 0.20 0.22 0.22 0.24 0.24 0.27 0.28 0.30 0.30 0.31 0.37 0.36 0.32 0.32 0.32 0.32 0.34 0.39 0.44 0.43 0.44 0.45 0.44
0.29 0.31 0.37 0.38 0.32 0.20 0.15 0.17 0.17 0.15 0.13 0.10 0.10 0.12 0.13 0.16 0.18 0.18 0.19 0.21 0.21 0.20 0.22 0.22 0.23 0.24 0.28 0.31 0.31 0.32 0.35 0.40 0.37 0.32 0.32 0.36 0.39 0.41 0.41 0.46 0.45 0.44 0.44 0.46
0.26 0.23 0.29 0.28 0.18 0.13 0.14 0.15 0.15 0.13 0.12 0.10 0.10 0.12 0.17 0.18 0.19 0.21 0.20 0.21 0.23 0.23 0.23 0.24 0.26 0.29 0.33 0.36 0.37 0.38 0.39 0.40 0.41 0.41 0.40 0.43 0.46 0.49 0.50 0.47 0.49 0.48 0.48 0.50
0.27 0.25 0.28 0.27 0.20 0.16 0.13 0.13 0.12 0.12 0.14 0.13 0.14 0.16 0.19 0.20 0.20 0.24 0.25 0.26 0.26 0.25 0.23 0.24 0.26 0.28 0.32 0.34 0.34 0.35 0.34 0.36 0.37 0.39 0.42 0.47 0.50 0.56 0.60 0.58 0.55 0.55 0.55 0.59
0.25 0.27 0.33 0.31 0.26 0.26 0.19 0.16 0.13 0.13 0.16 0.15 0.17 0.17 0.16 0.17 0.19 0.21 0.24 0.29 0.30 0.30 0.28 0.27 0.29 0.31 0.31 0.31 0.31 0.31 0.30 0.31 0.34 0.38 0.42 0.45 0.49 0.53 0.57 0.63 0.64 0.67 0.65 0.68